TITAN 3C TRANSTAGE DEB

基本信息
目录编号:
43452
目录名称:
TITAN 3C TRANSTAGE DEB
国际标识:
1969-013K
轨道中心:
EARTH
物体状态:
在轨
发射日期:
1969-02-09 UTC
轨道信息
数据来源: 国际轨道数据
星历时间: 2026-01-11T21:08:03+0800
半长轴: 41374.358km
偏心率: 0.0549795
轨道倾角: 0.794°
近地点辐角: 335.195°
升交点赤经: 136.641°
平近点角: 254.110°
近地点: 32721.479km
远地点: 37270.963km
周期: 1395.907分钟
每日圈数: 1.031587
详细信息
发射场:
AFETR
轨道高度:
MEO
数据来源:
AOE Integration Group
参考系:
TEME
时间系统:
UTC
历元类型:
SGP4
2D轨道图
3D轨道图
轨道高度分析图
轨道倾角分析图
轨道综合分析图
查看轨道综合分析图